sat.trackr.live / text

‹ back to catalog

HULIANWANG DIGUI-48

NORAD 65051 · 2025-162J

PAYLOAD ACTIVE UNKNOWN

§ Identity

Operator
Country
PRC
Launch date
2025-07-30
Launch site
WSC
Launch vehicle
Mass (kg)
RCS (m²)

External: N2YO · Heavens-Above · Gunter

§ Orbital elements

Epoch: 2026-05-25T02:15:56.014848Z

Period
108.33 min
Inclination
50.0053°
Eccentricity
0.0000485
Mean motion
13.29323948 rev/d
Perigee alt
1,148.9 km
Apogee alt
1,149.7 km
Semi-major
7,527.5 km
B*
5.8375e-5
RAAN
348.2855°
Arg perigee
42.3873°
Mean anomaly
317.7036°
Rev number
4,029

§ Raw data

HULIANWANG DIGUI-481 65051U 25162J   26145.09439832 -.00000097  00000+0  58375-4 0  99972 65051  50.0053 348.2855 0000485  42.3873 317.7036 13.29323948 40297

JSON: /api/v1/satellites/65051 · /tle

For live sub-satellite position, see the globe view (requires WebGL).

§ Visibility from observer

Set your observer location to see the next 7 days of passes ≥ 10°. The values pass through the URL so the page stays shareable.

No JS? Fill the form by hand. The geolocation button needs JavaScript.